Sabula, IA

5:31 PM CST on February 05, 2016 (GMT -0600)
Tri-Township

Weather History for KSFY - December, 2013

Change the Weather History Date:

Monday, December 9, 2013

  Actual Average (KCWI) Record (KCWI)
Temperature  
Mean Temperature 7 °F -  
Max Temperature 22 °F 35 °F 53 °F (1993)
Min Temperature -9 °F 19 °F -20 °F (1958)
Degree Days  
Heating Degree Days 58    
Moisture  
Dew Point 3 °F    
Average Humidity 77    
Maximum Humidity 94    
Minimum Humidity 61    
Precipitation  
Precipitation 0.00 in - - ()
Sea Level Pressure  
Sea Level Pressure 30.15 in    
Wind  
Wind Speed 7 mph (WSW)    
Max Wind Speed 18 mph    
Max Gust Speed 24 mph    
Visibility 9 miles    
Events Snow    
Averages and records for this station are not official NWS values.
T = Trace of Precipitation, MM = Missing Value Source: NWS Daily Summary

Daily Weather History Graph

Daily Weather History Graph

Search for Another Location

Airport or City:

Trip Planner

Search our weather history database for the weather conditions in past years. The results will help you decide how hot, cold, wet, or windy it might be!

Date:

Astronomy

Dec. 09, 2013 Rise Set
Actual Time 7:17 AM CST 4:28 PM CST
Civil Twilight 6:45 AM CST 5:00 PM CST
Nautical Twilight 6:10 AM CST 5:35 PM CST
Astronomical Twilight 5:36 AM CST 6:09 PM CST
Moon 12:04 PM CST (12/9) No Moon Set
Length of Visible Light 10h 14m
Length of Day
9h 11m
Waxing Crescent, 51% of the Moon is Illuminated
Dec 9
Waxing Crescent
Dec 17
Full
Dec 25
Last Quarter
Jan 1
New
Jan 7
First Quarter

Hourly Weather History & Observations

Time (CST) Temp. Windchill Dew Point Humidity Pressure Visibility Wind Dir Wind Speed Gust Speed Precip Events Conditions
12:15 AM 22.3 °F 17.6 °F 20.8 °F 94% 29.97 in 7.0 mi WSW 3.5 mph - N/A   Overcast
12:35 AM 22.1 °F 15.9 °F 20.5 °F 93% 29.97 in 7.0 mi WSW 4.6 mph - N/A   Overcast
1:15 AM 22.1 °F 15.9 °F 20.3 °F 93% 29.97 in 5.0 mi WSW 4.6 mph - N/A Snow Light Snow
1:35 AM 21.9 °F 15.7 °F 19.9 °F 92% 29.96 in 5.0 mi West 4.6 mph - N/A Snow Light Snow
1:55 AM 21.7 °F 13.2 °F 19.4 °F 91% 29.98 in 5.0 mi West 6.9 mph - N/A Snow Light Snow
2:15 AM 21.2 °F 12.6 °F 18.9 °F 91% 29.98 in 5.0 mi West 6.9 mph - N/A Snow Light Snow
2:35 AM 21.2 °F 10.1 °F 18.5 °F 89% 29.99 in 5.0 mi West 10.4 mph - N/A Snow Light Snow
2:55 AM 20.8 °F 12.1 °F 18.0 °F 89% 30.00 in 3.0 mi West 6.9 mph - N/A Snow Light Snow
3:15 AM 20.1 °F 11.3 °F 17.1 °F 88% 30.00 in 5.0 mi West 6.9 mph - N/A Snow Light Snow
3:35 AM 19.6 °F 9.7 °F 16.5 °F 88% 30.01 in 10.0 mi West 8.1 mph - N/A Snow Light Snow
3:55 AM 19.4 °F 8.6 °F 16.2 °F 87% 30.01 in 7.0 mi West 9.2 mph - N/A Snow Light Snow
4:16 AM 19.4 °F 7.2 °F 15.8 °F 86% 30.02 in 7.0 mi West 11.5 mph - N/A Snow Light Snow
4:35 AM 18.3 °F 8.2 °F 14.5 °F 85% 30.02 in 10.0 mi West 8.1 mph - N/A Snow Light Snow
4:55 AM 17.6 °F 7.3 °F 14.0 °F 86% 30.03 in 10.0 mi West 8.1 mph - N/A   Clear
5:15 AM 16.7 °F 8.3 °F 13.1 °F 86% 30.04 in 10.0 mi West 5.8 mph - N/A   Clear
5:35 AM 15.8 °F 6.1 °F 12.6 °F 87% 30.04 in 10.0 mi West 6.9 mph - N/A   Clear
5:55 AM 14.9 °F 6.1 °F 11.5 °F 86% 30.05 in 10.0 mi West 5.8 mph - N/A   Clear
6:15 AM 14.9 °F 5.0 °F 11.7 °F 87% 30.06 in 10.0 mi West 6.9 mph - N/A   Mostly Cloudy
6:35 AM 14.2 °F 3.1 °F 10.6 °F 86% 30.07 in 10.0 mi West 8.1 mph - N/A   Mostly Cloudy
6:55 AM 13.1 °F 4.0 °F 10.0 °F 88% 30.09 in 10.0 mi West 5.8 mph - N/A   Scattered Clouds
7:15 AM 12.6 °F 3.4 °F 9.1 °F 86% 30.10 in 10.0 mi West 5.8 mph - N/A   Clear
7:35 AM 12.2 °F 1.7 °F 8.8 °F 86% 30.11 in 10.0 mi West 6.9 mph - N/A   Clear
7:55 AM 12.7 °F 2.4 °F 9.0 °F 85% 30.11 in 10.0 mi WSW 6.9 mph - N/A   Clear
8:15 AM 13.6 °F 2.5 °F 9.3 °F 83% 30.12 in 10.0 mi West 8.1 mph - N/A   Clear
8:35 AM 13.3 °F 2.0 °F 8.8 °F 82% 30.12 in 10.0 mi WSW 8.1 mph - N/A   Clear
8:55 AM 13.6 °F 0.0 °F 8.6 °F 80% 30.13 in 10.0 mi West 11.5 mph 16.1 mph N/A   Clear
9:15 AM 13.5 °F 3.3 °F 8.2 °F 80% 30.13 in 10.0 mi West 6.9 mph - N/A   Clear
9:35 AM 14.0 °F 2.9 °F 8.1 °F 77% 30.14 in 10.0 mi West 8.1 mph - N/A   Clear
9:42 AM 14.0 °F 2.0 °F 8.6 °F 79% 30.14 in 10.0 mi West 9.2 mph - N/A   Clear
9:55 AM 14.0 °F 0.5 °F 7.7 °F 76% 30.14 in 10.0 mi West 11.5 mph 16.1 mph N/A   Clear
10:15 AM 14.0 °F 2.0 °F 7.7 °F 76% 30.16 in 10.0 mi West 9.2 mph - N/A   Clear
10:35 AM 12.2 °F -1.0 °F 5.9 °F 76% 30.16 in 10.0 mi WSW 10.4 mph - N/A   Clear
10:55 AM 12.7 °F -0.4 °F 5.9 °F 74% 30.16 in 10.0 mi WSW 10.4 mph - N/A   Clear
11:15 AM 13.1 °F 0.9 °F 5.5 °F 72% 30.17 in 10.0 mi West 9.2 mph - N/A   Clear
11:35 AM 13.6 °F 0.0 °F 5.4 °F 70% 30.16 in 10.0 mi WSW 11.5 mph - N/A   Clear
11:55 AM 13.3 °F -0.5 °F 5.0 °F 70% 30.16 in 10.0 mi WSW 11.5 mph - N/A   Clear
12:15 PM 13.1 °F -2.6 °F 4.8 °F 70% 30.18 in 10.0 mi WSW 15.0 mph - N/A   Clear
12:35 PM 12.2 °F -3.7 °F 3.2 °F 67% 30.18 in 1.2 mi West 15.0 mph 21.9 mph N/A Snow Light Snow
12:55 PM 12.0 °F -5.6 °F 2.5 °F 66% 30.19 in 7.0 mi West 18.4 mph 24.2 mph N/A   Clear
1:15 PM 11.7 °F -3.2 °F 1.8 °F 65% 30.19 in 7.0 mi WSW 12.7 mph 23.0 mph N/A   Clear
1:35 PM 11.1 °F -4.5 °F 1.6 °F 66% 30.19 in 10.0 mi WSW 13.8 mph 21.9 mph N/A   Clear
1:55 PM 10.4 °F -6.0 °F 0.7 °F 65% 30.20 in 10.0 mi WSW 15.0 mph 19.6 mph N/A   Clear
2:15 PM 9.7 °F -6.3 °F -0.9 °F 62% 30.21 in 10.0 mi WSW 13.8 mph 23.0 mph N/A   Clear
2:35 PM 9.3 °F -7.4 °F -1.7 °F 61% 30.21 in 10.0 mi WSW 15.0 mph 21.9 mph N/A   Clear
2:55 PM 8.6 °F -8.3 °F -1.8 °F 63% 30.22 in 10.0 mi WSW 15.0 mph 19.6 mph N/A   Clear
3:15 PM 8.4 °F -6.5 °F -2.2 °F 62% 30.23 in 10.0 mi WSW 11.5 mph 18.4 mph N/A   Clear
3:35 PM 8.1 °F -6.2 °F -2.7 °F 61% 30.23 in 10.0 mi WSW 10.4 mph 17.3 mph N/A   Clear
3:55 PM 7.3 °F -7.1 °F -3.1 °F 62% 30.24 in 10.0 mi WSW 10.4 mph - N/A   Clear
4:15 PM 6.6 °F -8.0 °F -3.6 °F 63% 30.25 in 10.0 mi WSW 10.4 mph 17.3 mph N/A   Clear
4:35 PM 5.7 °F -9.1 °F -4.0 °F 64% 30.24 in 10.0 mi WSW 10.4 mph - N/A   Clear
4:55 PM 5.0 °F -8.1 °F -4.9 °F 64% 30.25 in 10.0 mi West 8.1 mph - N/A   Clear
5:15 PM 4.6 °F -8.5 °F -5.1 °F 64% 30.24 in 10.0 mi West 8.1 mph - N/A   Clear
5:35 PM 4.1 °F -9.2 °F -5.3 °F 65% 30.24 in 10.0 mi West 8.1 mph - N/A   Clear
5:55 PM 4.1 °F -9.2 °F -5.3 °F 65% 30.24 in 10.0 mi West 8.1 mph - N/A   Clear
6:15 PM 3.6 °F -10.9 °F -5.6 °F 66% 30.25 in 10.0 mi West 9.2 mph - N/A   Clear
6:35 PM 3.0 °F -8.0 °F -5.8 °F 67% 30.25 in 10.0 mi West 5.8 mph - N/A   Clear
6:55 PM 2.3 °F -5.2 °F -6.0 °F 68% 30.24 in 10.0 mi West 3.5 mph - N/A   Clear
7:15 PM 1.8 °F -5.8 °F -6.3 °F 69% 30.23 in 10.0 mi WSW 3.5 mph - N/A   Clear
7:35 PM 0.5 °F -7.3 °F -7.1 °F 70% 30.23 in 10.0 mi WSW 3.5 mph - N/A   Clear
7:55 PM -1.3 °F -9.3 °F -7.8 °F 74% 30.24 in 10.0 mi SSW 3.5 mph - N/A   Clear
8:15 PM -1.8 °F -9.9 °F -8.7 °F 73% 30.24 in 10.0 mi South 3.5 mph - N/A   Clear
8:35 PM -3.3 °F -11.6 °F -8.5 °F 78% 30.23 in 10.0 mi SW 3.5 mph - N/A   Clear
8:55 PM -1.8 °F - -7.2 °F 78% 30.24 in 10.0 mi Calm Calm - N/A   Clear
9:15 PM -4.2 °F -12.6 °F -9.4 °F 78% 30.23 in 10.0 mi SSW 3.5 mph - N/A   Clear
9:35 PM -4.7 °F -15.4 °F -9.8 °F 79% 30.23 in 10.0 mi South 4.6 mph - N/A   Clear
9:55 PM -4.2 °F -16.5 °F -8.7 °F 81% 30.22 in 10.0 mi South 5.8 mph - N/A   Clear
10:15 PM -5.1 °F -17.6 °F -10.3 °F 78% 30.22 in 10.0 mi South 5.8 mph - N/A   Clear
10:35 PM -8.3 °F -17.3 °F -13.2 °F 79% 30.22 in 10.0 mi South 3.5 mph - N/A   Clear
10:55 PM -7.2 °F - -11.6 °F 81% 30.21 in 10.0 mi Calm Calm - N/A   Clear
11:15 PM -6.3 °F -15.1 °F -10.5 °F 82% 30.22 in 10.0 mi SSE 3.5 mph - N/A   Clear
11:35 PM -8.3 °F -17.3 °F -13.4 °F 79% 30.21 in 10.0 mi SE 3.5 mph - N/A   Clear
11:55 PM -9.8 °F -21.3 °F -13.9 °F 82% 30.21 in 10.0 mi SSE 4.6 mph - N/A   Clear